Tracking 28356 objects as of 7-Dec-2023
HD Live streaming from Space Station
objects crossing your sky now

SL-8 R/B

Track SL-8 R/B now!
10-day predictions


NORAD ID: 9848
Int'l Code: 1977-013B
Perigee: 973.6 km
Apogee: 999.7 km
Inclination: 83.0 °
Period: 104.7 minutes
Semi major axis: 7357 km
RCS: 4.757 m2 (large)
Launch date: February 21, 1977
Source: Commonwealth of Independent States (former USSR) (CIS)
Launch site: PLESETSK MISSILE AND SPACE COMPLEX (PKMTR)

Note: This is a ROCKET BODY
Your satellite tracking list
Your tracking list is empty




NASA's NSSDC Master Catalog

Two Line Element Set (TLE):
1 09848U 77013B   23340.54137049  .00000063  00000-0  49840-4 0  9990
2 09848  82.9526  35.8275 0017797 123.0024 348.5649 13.75605634347953
Source of the keplerian elements: AFSPC